Weather Roundup
Issued by NWS Chicago, IL

Home | Current Version | Previous Version | Graphics & Text | Print | Product List | Glossary On
Versions: 1 2 3 4 5 6 7 8 9 10 11 12 13 14 15 16 17 18 19 20 21 22 23 24 25 26 27 28 29 30 31 32 33 34 35 36 37 38 39 40 41 42 43 44 45 46 47 48 49 50
000
NZUS59 KLOT 180008
HRRLOT

CHICAGO AREA WEATHER ROUNDUP
NATIONAL WEATHER SERVICE CHICAGO/ROMEOVILLE IL
600 PM CST SUN DEC 17 2017

NOTE: "FAIR" INDICATES FEW OR NO CLOUDS BELOW 12,000 FEET WITH NO
SIGNIFICANT WEATHER AND/OR OBSTRUCTIONS TO VISIBILITY.

* THESE STATIONS ARE NOT UNDER NWS QUALITY CONTROL. THEY ALSO MAY NOT
  REPORT WEATHER SUCH AS PRECIPITATION OR FOG.

ILZ005-006-012>014-019>023-180100-
NORTHEAST ILLINOIS

CITY           SKY/WX    TMP DP  RH WIND       PRES   REMARKS
OHARE          CLOUDY    40  31  70 SW3       29.98R
6HR MIN TEMP:  39; 6HR MAX TEMP:  42;

MIDWAY         CLOUDY    44  32  62 CALM      29.99R
6HR MIN TEMP:  38; 6HR MAX TEMP:  47;

AURORA         CLOUDY    39  31  72 SW3       30.00R
6HR MIN TEMP:  38; 6HR MAX TEMP:  43;

LANSING*       CLOUDY    42  37  82 S9        30.00S
JOLIET*        CLOUDY    47  38  70 SW3       30.00R
WAUKEGAN       CLOUDY    34  32  92 CALM      29.97S FOG
6HR MIN TEMP:  34; 6HR MAX TEMP:  37;

DUPAGE AIRPORT CLOUDY    36  32  85 S6        29.98R
6HR MIN TEMP:  36; 6HR MAX TEMP:  41;

WHEELING       CLOUDY    38  34  85 CALM      29.99R
6HR MIN TEMP:  38; 6HR MAX TEMP:  41;

KANKAKEE*      CLOUDY    44  37  77 S9        30.02S
MORRIS*        CLOUDY    44  35  69 SW5       30.00R
LEWIS AIRPORT* CLOUDY    43  32  66 W3        30.00R
NORTHERLY ISL    N/A     38  33  82 SE1         N/A
$$

WIZ051-052-058>065-066-070>072-180100-
SOUTHEAST WISCONSIN

CITY           SKY/WX    TMP DP  RH WIND       PRES   REMARKS
MILWAUKEE      CLOUDY    36  33  89 W5        29.98R FOG
6HR MIN TEMP:  34; 6HR MAX TEMP:  36;

KENOSHA*       CLOUDY    35  31  85 N3        29.98R FOG
RACINE*        CLOUDY    35  32  88 NW3       30.00R FOG
BURLINGTON     CLOUDY    45  45 100 CALM      29.98R FOG
WAUKESHA       CLOUDY    30  28  93 N3        29.99R FOG
WEST BEND      CLOUDY    32  32 100 CALM      29.98S FOG
$$

INZ001>003-010>013-019-020-180100-
NORTHWEST INDIANA

CITY           SKY/WX    TMP DP  RH WIND       PRES   REMARKS
GARY*          CLOUDY    45  34  65 VRB5      29.99F
MICHIGAN CITY* NOT AVBL
RENSSELAER*    NOT AVBL
VALPARAISO     CLOUDY    42  35  76 S6        30.01S
$$

LMZ740>746-180100-
SOUTHERN LAKE MICHIGAN

STATION/POSITION TIME  SKY/WX   TEMP WIND        PRES    VSBY
                                AIR  DIR/SP/G
                 (UTC)          (F)  (DEG/KT/KT) (MB)    (MI)
HARRISON CRIB    2340            40  140/  1/  2   N/A
BURNHAM HARBOR   0000            37   CALM  /  3   N/A
CALUMET HARBOR   2330            44  170/  4/  6 1014.8R
BURNS HARBOR     2340            42  180/ 10/ 13 1016.3R
MICHIGAN CITY    2340            42  170/ 15/ 18   N/A
$$

ABBREVIATIONS USED IN REMARKS
   TC - TEMPERATURE IN CELSIUS
  WCI - WIND CHILL INDEX
   HX - HEAT INDEX
  VSB - VISIBILITY
$$




USA.gov is the U.S. government's official web portal to all federal, state and local government web resources and services.